Regional Weather Roundup
Issued by NWS Sioux Falls, SD

Home | Current Version | Previous Version | Text Only | Print | Product List | Glossary On
Versions: 1 2 3 4 5 6 7 8 9 10 11 12 13 14 15 16 17 18 19 20 21 22 23 24 25 26 27 28 29 30 31 32 33 34 35 36 37 38 39 40 41 42 43 44 45 46 47 48 49 50
000
ASUS43 KFSD 070202
RWRFSD

WEATHER ROUNDUP FOR SE SOUTH DAKOTA/SW MINNESOTA/NW IOWA
NATIONAL WEATHER SERVICE SIOUX FALLS SD
900 PM CDT MON JUL 06 2015

NOTE: "FAIR" INDICATES FEW OR NO CLOUDS BELOW 12,000 FEET WITH NO
SIGNIFICANT WEATHER AND OR OBSTRUCTIONS TO VISIBILITY.


SDZ038>040-050-052>070-070300-
SOUTHEAST SOUTH DAKOTA

CITY           SKY/WX    TMP DP  RH WIND       PRES   REMARKS
BROOKINGS      CLEAR     63  52  67 N6        30.11R
CHAMBERLAIN    CLEAR     67  58  72 NE3       30.11R
HURON          PTCLDY    66  55  67 NE8       30.09R HAZE
MADISON        FAIR      63  55  77 NE6       30.11R
MITCHELL       CLEAR     65  58  78 N5        30.09R HAZE
SIOUX FALLS    CLEAR     64  54  69 NE10      30.09R
WINNER         FAIR      68  57  68 NE7       30.12R
YANKTON        CLEAR     68  55  64 N10       30.06S
$$

MNZ071-072-080-081-089-090-097-098-070300-
SOUTHWEST MINNESOTA

CITY           SKY/WX    TMP DP  RH WIND       PRES   REMARKS
FAIRMONT       PTCLDY    64  52  63 NW14      30.02R
JACKSON        PTCLDY    63  52  67 N12G21    30.06R
MARSHALL       CLEAR     61  48  63 NE8       30.08R
PIPESTONE      CLEAR     63  54  72 NE3       30.10R
REDWOOD FALLS  CLEAR     63  48  58 N8        30.07R
TRACY          CLEAR     62  52  71 N6        30.09R
WINDOM         CLEAR     63  52  67 N15G21    30.06F
WORTHINGTON    PTCLDY    61  50  67 N12       30.07S
$$

IAZ001>003-012>014-020>022-031-032-NEZ013-014-SDZ071-070300-
NORTHWEST IOWA

CITY           SKY/WX    TMP DP  RH WIND       PRES   REMARKS
DENISON        CLOUDY    68  63  83 N6        29.98R HAZE
ESTHERVILLE    PTCLDY    64  54  69 N16G24    30.03R
SIOUX CITY     MOCLDY    70  56  61 N12       30.04R HAZE
SPENCER        MOCLDY    66  50  56 N20G28    30.04R
$$

ABBREVIATIONS USED IN REMARKS
   TC - TEMPERATURE IN CELSIUS
  WCI - WIND CHILL INDEX
   HX - HEAT INDEX
  VSB - VISIBILITY




USA.gov is the U.S. government's official web portal to all federal, state and local government web resources and services.